Data for 01/21/2018

Time Sea-Level Adjusted Pressure Absolute Pressure Temperature Relative Humidity Dew Point   
(mb) (inHg) (mb) (inHg) (C) (F) (%) (C) (F)
00:05 1018 30.06 847 25.01 -3.5 25.6 70 -8.2 17.2
00:10 1018 30.06 847 25.01 -3.3 26.1 71 -7.9 17.8
00:15 1018 30.06 847 25.01 -3.2 26.2 75 -7.1 19.3
00:20 1018 30.06 847 25.01 -3.4 26 77 -6.9 19.6
00:25 1018 30.06 847 25.01 -3.5 25.7 73 -7.6 18.3
00:30 1018 30.06 847 25.01 -3.4 25.9 74 -7.4 18.7
00:35 1018 30.06 847 25.01 -3.3 26 70 -8 17.6
00:40 1018 30.06 847 25.01 -3.2 26.3 69 -8 17.5
00:45 1018 30.06 847 25.01 -3.1 26.4 69 -7.9 17.8
00:50 1018 30.06 847 25.01 -3.2 26.3 68 -8.2 17.3
00:55 1018 30.06 847 25.01 -3.2 26.3 67 -8.4 16.9
01:00 1018 30.06 847 25.01 -3.2 26.2 69 -8.1 17.4
01:05 1018 30.06 847 25.01 -3.4 25.9 68 -8.5 16.7
01:10 1018 30.06 847 25.01 -3.4 25.9 67 -8.6 16.4
01:15 1018 30.06 847 25.01 -3.4 25.9 68 -8.6 16.5
01:20 1018 30.06 847 25.01 -3.4 25.8 68 -8.6 16.6
01:25 1018 30.06 847 25.01 -3.5 25.7 69 -8.3 17
01:30 1018 30.06 847 25.01 -3.6 25.4 71 -8.2 17.3
01:35 1018 30.06 847 25.01 -3.7 25.3 70 -8.3 17
01:40 1018 30.06 848 25.04 -3.7 25.3 73 -7.9 17.8
01:45 1018 30.06 848 25.04 -4.1 24.7 74 -8.1 17.4
01:50 1018 30.06 848 25.04 -4.1 24.7 72 -8.4 16.8
01:55 1018 30.06 848 25.04 -3.9 25 72 -8.3 17.1
02:00 1018 30.06 848 25.04 -3.9 25.1 74 -7.9 17.8
02:05 1018 30.06 848 25.04 -4 24.8 74 -8 17.6
02:10 1018 30.06 848 25.04 -3.9 24.9 73 -8 17.6
02:15 1018 30.06 848 25.04 -3.9 25 72 -8.3 17.1
02:20 1018 30.06 848 25.04 -3.9 25.1 72 -8.2 17.3
02:25 1018 30.06 848 25.04 -3.9 25 73 -8 17.7
02:30 1018 30.06 848 25.04 -4 24.8 72 -8.2 17.2
02:35 1018 30.06 847 25.01 -4.1 24.7 72 -8.4 16.9
02:40 1018 30.06 847 25.01 -3.9 24.9 71 -8.4 16.8
02:45 1018 30.06 847 25.01 -3.9 24.9 68 -9 15.8
02:50 1018 30.06 847 25.01 -3.9 25.1 69 -8.7 16.3
02:55 1018 30.06 847 25.01 -3.8 25.2 67 -9.1 15.6
03:00 1018 30.06 847 25.01 -3.7 25.4 68 -8.8 16.1
03:05 1018 30.06 847 25.01 -3.8 25.2 69 -8.6 16.5
03:10 1018 30.06 847 25.01 -4 24.8 69 -8.9 16
03:15 1018 30.06 847 25.01 -3.9 24.9 66 -9.3 15.2
03:20 1018 30.06 847 25.01 -3.8 25.1 67 -9 15.7
03:25 1018 30.06 848 25.04 -3.9 24.9 68 -9.1 15.7
03:30 1018 30.06 848 25.04 -4.3 24.2 72 -8.6 16.5
03:35 1018 30.06 848 25.04 -4.8 23.3 74 -8.8 16.2
03:40 1018 30.06 848 25.04 -4.9 23.3 71 -9.4 15.1
03:45 1019 30.09 848 25.04 -4.7 23.6 70 -9.3 15.2
03:50 1019 30.09 848 25.04 -4.5 23.9 68 -9.5 14.8
03:55 1019 30.09 848 25.04 -4.4 24.1 69 -9.2 15.5
04:00 1019 30.09 848 25.04 -4.5 23.9 72 -8.8 16.1
04:05 1019 30.09 848 25.04 -4.8 23.3 74 -8.8 16.2
04:10 1019 30.09 848 25.04 -5 23 73 -9.2 15.5
04:15 1019 30.09 848 25.04 -5 23.1 72 -9.3 15.3
04:20 1019 30.09 848 25.04 -4.9 23.1 74 -8.9 16
04:25 1019 30.09 848 25.04 -5 23 74 -9 15.8
04:30 1019 30.09 848 25.04 -5 22.9 75 -8.9 16
04:35 1019 30.09 848 25.04 -5.2 22.7 76 -8.9 16
04:40 1019 30.09 848 25.04 -5.3 22.5 74 -9.1 15.5
04:45 1019 30.09 848 25.04 -5.2 22.6 77 -8.7 16.3
04:50 1019 30.09 849 25.07 -5.3 22.4 74 -9.2 15.4
04:55 1019 30.09 849 25.07 -5.3 22.5 73 -9.3 15.3
05:00 1019 30.09 849 25.07 -5.3 22.5 69 -10.1 13.9
05:05 1019 30.09 849 25.07 -5.4 22.3 68 -10.4 13.3
05:10 1019 30.09 849 25.07 -5.4 22.3 68 -10.4 13.3
05:15 1020 30.12 849 25.07 -5.5 22 68 -10.6 12.9
05:20 1020 30.12 849 25.07 -5.7 21.8 68 -10.7 12.7
05:25 1020 30.12 849 25.07 -5.8 21.6 70 -10.4 13.4
05:30 1020 30.12 849 25.07 -5.7 21.7 70 -10.3 13.5
05:35 1020 30.12 849 25.07 -5.7 21.8 70 -10.3 13.5
05:40 1020 30.12 849 25.07 -5.6 21.9 71 -10.1 13.8
05:45 1020 30.12 849 25.07 -5.6 21.9 71 -10 14
05:50 1020 30.12 849 25.07 -5.5 22.1 70 -10.2 13.7
05:55 1020 30.12 849 25.07 -5.5 22.1 70 -10.2 13.7
06:00 1020 30.12 849 25.07 -5.4 22.2 69 -10.3 13.5
06:05 1020 30.12 849 25.07 -5.3 22.4 68 -10.4 13.3
06:10 1020 30.12 849 25.07 -5 23 66 -10.4 13.2
06:15 1020 30.12 849 25.07 -4.8 23.3 66 -10.2 13.6
06:20 1020 30.12 849 25.07 -4.8 23.3 65 -10.4 13.3
06:25 1020 30.12 849 25.07 -4.7 23.5 65 -10.4 13.3
06:30 1020 30.12 849 25.07 -4.6 23.6 64 -10.4 13.2
06:35 1020 30.12 849 25.07 -4.6 23.8 63 -10.5 13.1
06:40 1020 30.12 849 25.07 -4.5 23.9 63 -10.6 13
06:45 1020 30.12 849 25.07 -4.5 24 63 -10.5 13.2
06:50 1020 30.12 849 25.07 -4.4 24.1 62 -10.6 13
06:55 1020 30.12 849 25.07 -4.4 24.2 62 -10.5 13
07:00 1020 30.12 849 25.07 -4.5 23.9 63 -10.4 13.3
07:05 1020 30.12 849 25.07 -4.5 23.8 65 -10.1 13.9
07:10 1020 30.12 849 25.07 -4.8 23.4 67 -10.1 13.9
07:15 1020 30.12 849 25.07 -5 23 67 -10.2 13.6
07:20 1020 30.12 849 25.07 -5.1 22.8 66 -10.6 13
07:25 1020 30.12 849 25.07 -5.2 22.6 66 -10.6 12.8
07:30 1020 30.12 849 25.07 -5.1 22.7 65 -10.8 12.5
07:35 1020 30.12 849 25.07 -5.2 22.6 64 -10.9 12.3
07:40 1020 30.12 850 25.1 -5.3 22.5 64 -11 12.2
07:45 1020 30.12 850 25.1 -5.2 22.6 63 -11.1 12
07:50 1020 30.12 850 25.1 -5.2 22.7 64 -11 12.3
07:55 1020 30.12 850 25.1 -5 23.1 64 -10.8 12.5
08:00 1020 30.12 850 25.1 -4.9 23.2 66 -10.3 13.4
08:05 1020 30.12 849 25.07 -4.8 23.4 66 -10.2 13.7
08:10 1020 30.12 849 25.07 -4.9 23.2 67 -10.1 13.8
08:15 1020 30.12 850 25.1 -5.2 22.7 66 -10.6 12.9
08:20 1020 30.12 849 25.07 -5.1 22.8 67 -10.4 13.3
08:25 1020 30.12 850 25.1 -4.8 23.3 66 -10.1 13.7
08:30 1020 30.12 850 25.1 -4.4 24 66 -9.9 14.2
08:35 1020 30.12 850 25.1 -4 24.8 65 -9.6 14.8
08:40 1020 30.12 850 25.1 -3.6 25.5 64 -9.4 15
08:45 1020 30.12 850 25.1 -3.5 25.6 65 -9.3 15.3
08:50 1020 30.12 850 25.1 -3.3 26 63 -9.4 15
08:55 1020 30.12 850 25.1 -3.4 26 63 -9.4 15
09:00 1020 30.12 850 25.1 -3.3 26.1 62 -9.6 14.7
09:05 1020 30.12 850 25.1 -3 26.5 61 -9.5 14.9
09:10 1020 30.12 850 25.1 -2.4 27.7 59 -9.3 15.2
09:15 1020 30.12 850 25.1 -2.1 28.2 59 -9.2 15.5
09:20 1020 30.12 850 25.1 -2 28.4 56 -9.6 14.7
09:25 1020 30.12 850 25.1 -1.8 28.7 58 -9.1 15.7
09:30 1020 30.12 850 25.1 -2.7 27.1 61 -9.1 15.5
09:35 1020 30.12 850 25.1 -2.3 27.8 58 -9.5 14.9
09:40 1021 30.15 850 25.1 -1.7 29 56 -9.3 15.2
09:45 1021 30.15 850 25.1 -1.2 29.9 54 -9.3 15.3
09:50 1021 30.15 850 25.1 -1.1 30.1 52 -9.6 14.7
09:55 1021 30.15 850 25.1 -0.8 30.6 52 -9.4 15.1
10:00 1021 30.15 850 25.1 -1.1 30 55 -9 15.8
10:05 1021 30.15 850 25.1 -1.1 30 52 -9.8 14.4
10:10 1021 30.15 850 25.1 -0.6 30.9 49 -10 13.9
10:15 1020 30.12 850 25.1 -0.3 31.4 50 -9.7 14.6
10:20 1020 30.12 850 25.1 -0.5 31.2 47 -10.4 13.3
10:25 1020 30.12 850 25.1 -0.4 31.3 48 -10.3 13.5
10:30 1020 30.12 849 25.07 -0.3 31.5 48 -10 14.1
10:35 1020 30.12 849 25.07 -0.3 31.4 47 -10.3 13.5
10:40 1020 30.12 849 25.07 -0.2 31.6 48 -9.9 14.2
10:45 1020 30.12 849 25.07 -0.7 30.8 50 -9.9 14.3
10:50 1020 30.12 849 25.07 -0.5 31.2 52 -9.2 15.5
10:55 1020 30.12 849 25.07 -1 30.2 51 -9.8 14.3
11:00 1020 30.12 849 25.07 -1 30.1 52 -9.8 14.4
11:05 1020 30.12 849 25.07 -0.6 30.9 49 -10.2 13.7
11:10 1020 30.12 849 25.07 0.2 32.4 48 -9.5 14.8
11:15 1020 30.12 849 25.07 0.5 32.9 48 -9.2 15.5
11:20 1020 30.12 849 25.07 0.7 33.2 47 -9.4 15
11:25 1020 30.12 849 25.07 0.4 32.8 45 -10.2 13.7
11:30 1020 30.12 849 25.07 1 33.8 43 -10.4 13.4
11:35 1020 30.12 849 25.07 1 33.8 46 -9.3 15.3
11:40 1020 30.12 849 25.07 0.8 33.4 47 -9.3 15.2
11:45 1020 30.12 849 25.07 0.5 33 48 -9.1 15.6
11:50 1020 30.12 849 25.07 -0.2 31.6 50 -9.3 15.2
11:55 1020 30.12 849 25.07 -1 30.1 54 -9.3 15.3
12:00 1020 30.12 849 25.07 -1.3 29.7 52 -9.9 14.2
12:05 1020 30.12 849 25.07 -1.4 29.5 53 -9.8 14.4
12:10 1020 30.12 849 25.07 -1.3 29.7 52 -9.8 14.4
12:15 1019 30.09 849 25.07 -1.3 29.7 53 -9.6 14.7
12:20 1019 30.09 849 25.07 -1.4 29.6 53 -9.7 14.5
12:25 1019 30.09 849 25.07 -1.6 29.2 52 -10.1 13.9
12:30 1019 30.09 849 25.07 -1.7 28.9 53 -10.1 13.8
12:35 1019 30.09 849 25.07 -1.8 28.7 53 -10.2 13.6
12:40 1019 30.09 849 25.07 -2.2 28 54 -10.3 13.5
12:45 1019 30.09 849 25.07 -2.3 27.9 53 -10.6 13
12:50 1019 30.09 849 25.07 -1.9 28.5 52 -10.5 13
12:55 1019 30.09 849 25.07 -2.4 27.6 55 -10.4 13.3
13:00 1019 30.09 849 25.07 -2.3 27.8 53 -10.6 12.8
13:05 1019 30.09 848 25.04 -2.1 28.2 53 -10.5 13.1
13:10 1019 30.09 848 25.04 -1.9 28.5 53 -10.3 13.4
13:15 1019 30.09 848 25.04 -1.8 28.7 52 -10.5 13.1
13:20 1019 30.09 848 25.04 -1.6 29.2 50 -10.6 13
13:25 1019 30.09 848 25.04 -1.6 29.2 51 -10.5 13.2
13:30 1019 30.09 848 25.04 -1.1 30 49 -10.5 13.1
13:35 1019 30.09 848 25.04 -0.7 30.8 48 -10.5 13.1
13:40 1019 30.09 848 25.04 -0.5 31.1 46 -10.7 12.7
13:45 1019 30.09 848 25.04 -0.5 31 47 -10.7 12.8
13:50 1019 30.09 848 25.04 -0.6 30.9 48 -10.4 13.3
13:55 1019 30.09 848 25.04 -0.6 30.9 48 -10.4 13.3
14:00 1019 30.09 848 25.04 -1 30.2 48 -10.8 12.6
14:05 1019 30.09 848 25.04 -0.6 30.9 46 -10.9 12.3
14:10 1019 30.09 848 25.04 -0.5 31.1 46 -10.7 12.8
14:15 1019 30.09 848 25.04 -0.8 30.5 47 -10.9 12.4
14:20 1019 30.09 848 25.04 -0.6 30.9 47 -10.7 12.7
14:25 1019 30.09 848 25.04 -0.9 30.4 48 -10.6 13
14:30 1019 30.09 848 25.04 -1.1 30.1 47 -11.1 12
14:35 1019 30.09 848 25.04 -0.5 31.1 45 -11.1 12.1
14:40 1019 30.09 848 25.04 -0.3 31.5 46 -10.6 12.9
14:45 1019 30.09 848 25.04 -0.9 30.3 50 -10.1 13.8
14:50 1019 30.09 848 25.04 -1.2 29.8 50 -10.5 13.1
14:55 1019 30.09 848 25.04 -1.1 30.1 50 -10.3 13.4
15:00 1019 30.09 848 25.04 -0.8 30.6 51 -9.6 14.6
15:05 1019 30.09 848 25.04 -1.2 29.9 52 -9.9 14.2
15:10 1019 30.09 848 25.04 -1.1 30 52 -9.8 14.4
15:15 1019 30.09 848 25.04 -0.8 30.5 50 -10.1 13.9
15:20 1019 30.09 848 25.04 -0.7 30.7 48 -10.5 13
15:25 1019 30.09 848 25.04 -0.8 30.6 48 -10.6 13
15:30 1019 30.09 848 25.04 -0.9 30.3 48 -10.7 12.7
15:35 1019 30.09 848 25.04 -1.3 29.7 49 -10.6 12.9
15:40 1019 30.09 848 25.04 -1.5 29.3 51 -10.5 13.2
15:45 1019 30.09 848 25.04 -1.8 28.7 51 -10.6 12.9
15:50 1019 30.09 848 25.04 -2 28.4 52 -10.5 13
15:55 1019 30.09 848 25.04 -2.4 27.7 54 -10.5 13.2
16:00 1019 30.09 848 25.04 -2.7 27.2 54 -10.6 12.9
16:05 1019 30.09 848 25.04 -3.1 26.4 56 -10.6 12.9
16:10 1019 30.09 848 25.04 -3.7 25.4 59 -10.6 12.9
16:15 1019 30.09 849 25.07 -4.1 24.7 60 -10.7 12.8
16:20 1019 30.09 849 25.07 -4.3 24.3 62 -10.6 12.9
16:25 1019 30.09 849 25.07 -4.5 23.9 63 -10.6 13
16:30 1019 30.09 849 25.07 -4.7 23.5 63 -10.7 12.7
16:35 1019 30.09 849 25.07 -5 23.1 65 -10.7 12.8
16:40 1019 30.09 849 25.07 -5.3 22.4 63 -11.2 11.8
16:45 1019 30.09 849 25.07 -5.8 21.5 67 -11.1 12
16:50 1019 30.09 849 25.07 -6.2 20.9 67 -11.3 11.6
16:55 1019 30.09 849 25.07 -6.4 20.6 69 -11.1 12
17:00 1019 30.09 849 25.07 -6.7 19.9 71 -11.2 11.9
17:05 1019 30.09 848 25.04 -7.2 19 71 -11.6 11.2
17:10 1019 30.09 848 25.04 -7.5 18.5 73 -11.5 11.2
17:15 1019 30.09 848 25.04 -7.5 18.5 74 -11.4 11.6
17:20 1019 30.09 849 25.07 -7.6 18.3 76 -11.2 11.9
17:25 1019 30.09 849 25.07 -7.7 18.2 78 -11 12.3
17:30 1019 30.09 849 25.07 -7.5 18.4 76 -11.1 12.1
17:35 1019 30.09 849 25.07 -7.5 18.4 75 -11.3 11.7
17:40 1019 30.09 848 25.04 -7.8 18 75 -11.4 11.5
17:45 1019 30.09 848 25.04 -7.7 18.1 74 -11.6 11.1
17:50 1019 30.09 848 25.04 -7.6 18.4 74 -11.4 11.4
17:55 1019 30.09 848 25.04 -7.9 17.8 76 -11.4 11.4
18:00 1019 30.09 849 25.07 -8 17.7 77 -11.3 11.7
18:05 1019 30.09 849 25.07 -7.7 18.1 78 -10.9 12.3
18:10 1019 30.09 849 25.07 -7.7 18.2 78 -10.9 12.4
18:15 1019 30.09 849 25.07 -7.6 18.3 78 -10.9 12.5
18:20 1019 30.09 849 25.07 -7.9 17.9 79 -10.9 12.4
18:25 1019 30.09 849 25.07 -7.9 17.8 80 -10.7 12.7
18:30 1019 30.09 849 25.07 -7.8 17.9 79 -10.8 12.6
18:35 1019 30.09 849 25.07 -8.1 17.5 80 -10.9 12.4
18:40 1019 30.09 849 25.07 -8.1 17.3 80 -11 12.2
18:45 1019 30.09 849 25.07 -8.1 17.4 79 -11.1 12
18:50 1019 30.09 849 25.07 -8.1 17.3 79 -11.2 11.9
18:55 1019 30.09 849 25.07 -8.1 17.5 79 -11.1 12
19:00 1019 30.09 849 25.07 -8.1 17.4 79 -11.2 11.9
19:05 1019 30.09 848 25.04 -8.1 17.3 79 -11.2 11.8
19:10 1019 30.09 848 25.04 -8.1 17.4 78 -11.3 11.7
19:15 1019 30.09 848 25.04 -8.2 17.2 78 -11.4 11.5
19:20 1019 30.09 848 25.04 -8.4 16.9 78 -11.5 11.3
19:25 1019 30.09 848 25.04 -8.7 16.3 79 -11.7 11
19:30 1019 30.09 848 25.04 -8.7 16.3 79 -11.7 10.9
19:35 1019 30.09 848 25.04 -8.7 16.4 79 -11.7 11
19:40 1019 30.09 848 25.04 -8.7 16.4 79 -11.7 10.9
19:45 1019 30.09 848 25.04 -8.5 16.6 78 -11.7 11
19:50 1019 30.09 848 25.04 -8.4 16.9 77 -11.7 10.9
19:55 1019 30.09 848 25.04 -8.5 16.8 78 -11.7 10.9
20:00 1019 30.09 848 25.04 -8.5 16.8 77 -11.8 10.8
20:05 1019 30.09 848 25.04 -8.4 16.9 77 -11.8 10.8
20:10 1019 30.09 848 25.04 -8.4 16.9 76 -11.9 10.6
20:15 1019 30.09 848 25.04 -8.3 17.1 76 -11.8 10.8
20:20 1019 30.09 848 25.04 -8.3 17.1 76 -11.8 10.8
20:25 1019 30.09 848 25.04 -8.4 16.9 77 -11.8 10.8
20:30 1019 30.09 848 25.04 -8.5 16.8 76 -11.9 10.5
20:35 1019 30.09 848 25.04 -8.7 16.3 77 -12.1 10.3
20:40 1019 30.09 848 25.04 -9 15.8 78 -12.2 10
20:45 1019 30.09 848 25.04 -9.1 15.5 78 -12.3 9.8
20:50 1019 30.09 848 25.04 -8.8 16.2 76 -12.3 9.9
20:55 1019 30.09 848 25.04 -8.5 16.6 76 -12.1 10.2
21:00 1019 30.09 848 25.04 -8.3 17.2 74 -12 10.4
21:05 1019 30.09 848 25.04 -8.1 17.4 74 -12 10.4
21:10 1019 30.09 848 25.04 -8 17.5 74 -12 10.5
21:15 1019 30.09 848 25.04 -8 17.6 74 -11.9 10.5
21:20 1019 30.09 848 25.04 -7.7 18.2 72 -11.9 10.7
21:25 1019 30.09 848 25.04 -7.6 18.3 73 -11.7 10.9
21:30 1019 30.09 848 25.04 -7.8 18.1 72 -11.9 10.6
21:35 1019 30.09 848 25.04 -7.9 17.7 72 -12 10.3
21:40 1019 30.09 848 25.04 -8.1 17.4 73 -12.2 10.1
21:45 1019 30.09 848 25.04 -7.6 18.3 71 -12 10.3
21:50 1019 30.09 848 25.04 -7.4 18.6 71 -11.9 10.6
21:55 1019 30.09 848 25.04 -7.8 17.9 73 -11.8 10.8
22:00 1019 30.09 848 25.04 -8.1 17.4 73 -12.2 10.1
22:05 1019 30.09 848 25.04 -8.3 17 74 -12.2 10
22:10 1019 30.09 848 25.04 -8.5 16.7 74 -12.3 9.9
22:15 1019 30.09 848 25.04 -8.1 17.5 71 -12.4 9.7
22:20 1019 30.09 848 25.04 -7.9 17.8 72 -12.1 10.2
22:25 1019 30.09 848 25.04 -8.1 17.4 72 -12.3 9.9
22:30 1019 30.09 848 25.04 -8.7 16.4 75 -12.3 9.9
22:35 1019 30.09 848 25.04 -9 15.7 76 -12.6 9.4
22:40 1019 30.09 848 25.04 -8.5 16.8 74 -12.3 9.9
22:45 1019 30.09 848 25.04 -7.1 19.3 69 -11.9 10.6
22:50 1019 30.09 848 25.04 -7.3 18.8 71 -11.7 10.9
22:55 1019 30.09 848 25.04 -7.5 18.5 71 -11.9 10.5
23:00 1019 30.09 848 25.04 -7.8 18.1 71 -12.1 10.1
23:05 1019 30.09 848 25.04 -7.8 18 71 -12.1 10.2
23:10 1019 30.09 848 25.04 -8.2 17.2 74 -12 10.3
23:15 1019 30.09 848 25.04 -7.8 18 70 -12.3 9.8
23:20 1019 30.09 848 25.04 -7.6 18.3 70 -12.2 10.1
23:25 1019 30.09 848 25.04 -7.5 18.5 71 -11.9 10.5
23:30 1019 30.09 848 25.04 -7.6 18.3 71 -12 10.3
23:35 1019 30.09 848 25.04 -7.4 18.6 70 -12 10.4
23:40 1019 30.09 848 25.04 -7.7 18.2 72 -11.9 10.6
23:45 1019 30.09 848 25.04 -8.1 17.4 73 -12.1 10.2
23:50 1019 30.09 848 25.04 -8.4 16.8 74 -12.3 9.8
23:55 1019 30.09 848 25.04 -8.8 16.1 74 -12.7 9.2
24:00 1019 30.09 848 25.04 -8.9 16 74 -12.7 9.2